Location: Newark
(22.3060°N, 114.2134°E)
Time: 18:56:57
(UTC+00:00)

Explorer 11/Cluster Stage 4 - Pass Details

Date: 29 July 2021
Orbit: 467 x 1256 km, 28.8° (Epoch: 27 September)

Event Time Altitude Azimuth Distance (km) Brightness Sun altitude
Rises 09:05:36 0° 281° (W) 3,548 11.3 25.8°
Reaches altitude 10° 09:08:46 10° 271° (W) 2,452 10.9 25.1°
Maximum altitude 09:13:41 29° 213° (SSW) 1,296 8.2 24.0°
Drops below altitude 10° 09:17:46 10° 152° (SSE) 2,005 8.4 23.1°
Sets 09:20:06 0° 140° (SE) 2,799 9.0 22.5°
